Weather in Vakulenchuk

Ukraine / Zhytomyr Region     49°56′50″N   28°17′25″E
temp.,
°C
wind,
m/s
gust,
m/s
humid.,
%
clouds,
%
prec.,
mm/h
press.,
hPa
HPBL,
m
11 april, sun
sun1100:00+5s49660 0.0 1025141
03:00+4s48680 0.0 1026139
06:00+3s35690 0.0 102781
09:00+7s46550 0.0 1027241
12:00+12sse56410 0.0 10271123
15:00+14sse45350 0.0 10261445
18:00+13se45410 0.0 10261389
21:00+8se34570 0.0 102759
12 april, mon
mon1200:00+6sse33620 0.0 102731
03:00+5se34670 0.0 102755
06:00+4se33670 0.0 102630
09:00+8ese34530 0.0 1025235
12:00+13se33390 0.0 10241015
15:00+15ese33360 0.0 10211344
18:00+15ese223992 0.0 10201251
21:00+10ese33560 0.0 102124
13 april, tue
tue1300:00+8se33640 0.0 102126
03:00+7s22730 0.0 102111
06:00+6se01720 0.0 102010
09:00+11e22605 0.0 1020206
12:00+16se114454 0.0 1018845
15:00+17ese2241100 0.0 10171424
18:00+17e324740 0.0 10161560
21:00+12sse3674100 0.0 1016157
14 april, wed
wed1400:00+11sse3787100 0.2 1016296
03:00+10sse4793100 1.0 1015385
06:00+9se4790100 0.8 1014421
09:00+10sse4681100 0.8 1014423
12:00+13sse4567100 0.1 10131198
15:00+9sse5684100 0.2 1014530
18:00+9sse4984100 0.1 1014469
21:00+9ese2585100 0.1 1014171
15 april, thu
thu1500:00+8ese3688100 0.1 1014139
03:00+6se3589100 0.1 1014105
06:00+5se2290100 0.0 101416
09:00+8ne2378100 0.0 1014133
12:00+10nne4569100 0.0 1014456
15:00+12nne466098 0.1 10131054
18:00+9nne4990100 1.7 1013526
21:00+9n51189100 3.9 1012514